Glencoe, MN

11:36 PM CST on December 10, 2019 (GMT -0600)
Glencoe Municipal

Weather History for KGYL - October, 2019

Change the Weather History Date:

Friday, October 18, 2019

  Actual Average (WUND) Record (WUND)
Temperature  
Mean Temperature 58 °F -  
Max Temperature 71 °F - - (-1)
Min Temperature 45 °F - - (-1)
Degree Days  
Heating Degree Days 7    
Growing Degree Days 8 (Base 50)    
Moisture  
Dew Point 41 °F    
Average Humidity 63    
Maximum Humidity 82    
Minimum Humidity 31    
Precipitation  
Precipitation 0.00 in - - ()
Sea Level Pressure  
Sea Level Pressure 29.65 in    
Wind  
Wind Speed 11 mph (SE)    
Max Wind Speed 24 mph    
Max Gust Speed 31 mph    
Visibility 10 miles    
Events      
Averages and records for this station are not official NWS values.
T = Trace of Precipitation, MM = Missing Value Source: NWS Daily Summary

Daily Weather History Graph

Daily Weather History Graph

Search for Another Location

Airport or City:

Astronomy

Oct. 18, 2019 Rise Set
Actual Time 7:35 AM CDT 6:26 PM CDT
Civil Twilight 7:05 AM CDT 6:56 PM CDT
Nautical Twilight 6:31 AM CDT 7:30 PM CDT
Astronomical Twilight 5:57 AM CDT 8:04 PM CDT
Moon 9:34 PM CDT (10/18) 12:18 PM CDT (10/18)
Length of Visible Light 11h 50m
Length of Day
10h 51m
Waning Gibbous, 78% of the Moon is Illuminated
Oct 18
Waning Gibbous
Oct 21
Last Quarter
Oct 27
New
Nov 4
First Quarter
Nov 12
Full

Hourly Weather History & Observations

Time (CDT) Temp. Windchill Dew Point Humidity Pressure Visibility Wind Dir Wind Speed Gust Speed Precip Events Conditions
12:35 AM 47.1 °F - 38.8 °F 73% 29.83 in 10.0 mi ESE 8.1 mph - N/A   Clear
12:55 AM 46.8 °F - 39.2 °F 75% 29.82 in 10.0 mi ESE 9.2 mph - N/A   Clear
1:18 AM 47.3 °F - 39.2 °F 73% 29.82 in 10.0 mi ESE 9.2 mph - N/A   Clear
1:35 AM 47.3 °F - 39.2 °F 73% 29.82 in 10.0 mi ESE 9.2 mph - N/A   Clear
1:36 AM 47.3 °F - 39.2 °F 73% 29.82 in 10.0 mi ESE 9.2 mph - N/A   Clear
1:55 AM 47.1 °F - 39.2 °F 74% 29.81 in 10.0 mi ESE 9.2 mph - N/A   Clear
2:15 AM 46.8 °F - 39.4 °F 75% 29.80 in 10.0 mi ESE 8.1 mph - N/A   Clear
2:36 AM 46.0 °F 41.0 °F 39.6 °F 78% 29.79 in 10.0 mi ESE 10.4 mph - N/A   Clear
2:55 AM 46.4 °F 41.5 °F 39.7 °F 78% 29.79 in 10.0 mi ESE 10.4 mph - N/A   Clear
2:56 AM 46.4 °F 41.5 °F 39.7 °F 78% 29.79 in 10.0 mi ESE 10.4 mph - N/A   Clear
3:17 AM 46.4 °F 41.9 °F 40.1 °F 79% 29.78 in 10.0 mi ESE 9.2 mph - N/A   Clear
3:35 AM 46.2 °F 41.2 °F 40.1 °F 79% 29.77 in 10.0 mi ESE 10.4 mph - N/A   Clear
3:55 AM 46.4 °F 41.9 °F 40.1 °F 79% 29.77 in 10.0 mi ESE 9.2 mph - N/A   Clear
3:56 AM 46.4 °F 41.9 °F 40.1 °F 79% 29.77 in 10.0 mi ESE 9.2 mph - N/A   Clear
4:19 AM 45.5 °F 40.8 °F 40.1 °F 81% 29.76 in 10.0 mi ESE 9.2 mph - N/A   Clear
4:35 AM 45.5 °F 40.8 °F 40.1 °F 81% 29.76 in 10.0 mi ESE 9.2 mph - N/A   Clear
4:55 AM 45.1 °F 39.9 °F 40.1 °F 82% 29.76 in 10.0 mi ESE 10.4 mph - N/A   Clear
4:56 AM 45.1 °F 39.9 °F 40.1 °F 82% 29.75 in 10.0 mi ESE 10.4 mph - N/A   Clear
5:17 AM 45.5 °F 40.3 °F 40.3 °F 82% 29.75 in 10.0 mi ESE 10.4 mph - N/A   Clear
5:35 AM 45.5 °F 39.9 °F 40.3 °F 82% 29.73 in 10.0 mi ESE 11.5 mph - N/A   Clear
5:36 AM 45.5 °F 40.3 °F 40.3 °F 82% 29.73 in 10.0 mi ESE 10.4 mph - N/A   Clear
5:55 AM 45.9 °F 40.0 °F 40.3 °F 81% 29.72 in 10.0 mi ESE 12.7 mph - N/A   Clear
5:59 AM 46.0 °F 40.2 °F 40.5 °F 81% 29.72 in 10.0 mi ESE 12.7 mph - N/A   Clear
6:16 AM 46.6 °F - 40.5 °F 79% 29.72 in 10.0 mi SE 12.7 mph 17.3 mph N/A   Clear
6:35 AM 46.8 °F - 40.3 °F 78% 29.72 in 10.0 mi SE 11.5 mph 17.3 mph N/A   Clear
6:36 AM 46.8 °F - 40.3 °F 78% 29.72 in 10.0 mi SE 11.5 mph 17.3 mph N/A   Clear
6:55 AM 46.6 °F - 40.3 °F 79% 29.71 in 10.0 mi SE 10.4 mph - N/A   Clear
6:59 AM 46.6 °F - 40.3 °F 79% 29.71 in 10.0 mi ESE 10.4 mph - N/A   Clear
7:17 AM 46.4 °F 41.1 °F 40.3 °F 79% 29.70 in 10.0 mi SE 11.5 mph - N/A   Clear
7:35 AM 46.6 °F - 40.3 °F 79% 29.70 in 10.0 mi SE 10.4 mph - N/A   Clear
7:36 AM 46.6 °F - 40.3 °F 79% 29.70 in 10.0 mi SE 10.4 mph - N/A   Clear
7:55 AM 47.3 °F - 40.3 °F 77% 29.69 in 10.0 mi ESE 10.4 mph - N/A   Clear
7:59 AM 47.1 °F - 40.5 °F 78% 29.69 in 10.0 mi SE 10.4 mph - N/A   Clear
8:16 AM 47.5 °F - 40.5 °F 77% 29.69 in 10.0 mi SE 9.2 mph 17.3 mph N/A   Clear
8:35 AM 48.0 °F - 40.6 °F 76% 29.68 in 10.0 mi ESE 11.5 mph - N/A   Clear
8:55 AM 48.9 °F - 41.0 °F 74% 29.68 in 10.0 mi SE 11.5 mph 19.6 mph N/A   Clear
8:59 AM 49.1 °F - 41.0 °F 74% 29.68 in 10.0 mi SE 11.5 mph 20.7 mph N/A   Clear
9:16 AM 50.2 °F - 41.2 °F 71% 29.68 in 10.0 mi SE 9.2 mph 16.1 mph N/A   Clear
9:35 AM 50.9 °F - 41.5 °F 70% 29.68 in 10.0 mi SE 10.4 mph 16.1 mph N/A   Clear
9:36 AM 50.9 °F - 41.5 °F 70% 29.68 in 10.0 mi SE 10.4 mph 16.1 mph N/A   Clear
9:57 AM 52.2 °F - 41.9 °F 68% 29.66 in 10.0 mi SE 13.8 mph 19.6 mph N/A   Clear
10:15 AM 53.1 °F - 41.9 °F 66% 29.66 in 10.0 mi SE 16.1 mph 21.9 mph N/A   Clear
10:35 AM 54.7 °F - 42.1 °F 62% 29.65 in 10.0 mi SE 11.5 mph 24.2 mph N/A   Clear
10:39 AM 55.2 °F - 42.4 °F 62% 29.65 in 10.0 mi SE 13.8 mph 24.2 mph N/A   Clear
10:56 AM 56.1 °F - 42.6 °F 61% 29.64 in 10.0 mi SE 13.8 mph 23.0 mph N/A   Clear
11:15 AM 57.6 °F - 42.4 °F 57% 29.64 in 10.0 mi SE 17.3 mph 21.9 mph N/A   Clear
11:16 AM 57.6 °F - 42.3 °F 57% 29.64 in 10.0 mi SE 16.1 mph 21.9 mph N/A   Clear
11:36 AM 59.4 °F - 43.0 °F 55% 29.63 in 10.0 mi SE 11.5 mph 23.0 mph N/A   Clear
11:57 AM 60.3 °F - 42.3 °F 51% 29.62 in 10.0 mi SE 13.8 mph 21.9 mph N/A   Clear
12:21 PM 61.0 °F - 42.1 °F 50% 29.61 in 10.0 mi SE 16.1 mph 24.2 mph N/A   Clear
12:46 PM 62.2 °F - 42.3 °F 48% 29.60 in 10.0 mi SE 18.4 mph 26.5 mph N/A   Clear
12:59 PM 62.6 °F - 42.8 °F 48% 29.59 in 10.0 mi SE 15.0 mph 23.0 mph N/A   Clear
1:59 PM 66.2 °F - 41.0 °F 40% 29.56 in 10.0 mi SSE 16.1 mph 25.3 mph N/A   Clear
2:59 PM 69.8 °F - 41.0 °F 35% 29.50 in 10.0 mi SE 17.3 mph 27.6 mph N/A   Clear
3:59 PM 71.6 °F - 39.2 °F 31% 29.48 in 10.0 mi SE 24.2 mph 31.1 mph N/A   Clear
4:59 PM 71.6 °F - 39.2 °F 31% 29.49 in 7.0 mi South 11.5 mph 25.3 mph N/A   Clear
5:59 PM 69.8 °F - 41.0 °F 35% 29.50 in 10.0 mi South 11.5 mph 19.6 mph N/A   Overcast
6:54 PM - - - N/A% 29.50 in 10.0 mi SE 9.2 mph 18.4 mph N/A   Overcast
7:16 PM 68.5 °F - 41.0 °F 37% 29.51 in 10.0 mi SE 10.4 mph 17.3 mph N/A   Overcast
7:37 PM 68.0 °F - 41.5 °F 38% 29.51 in 10.0 mi SSE 13.8 mph 17.3 mph N/A   Overcast
7:59 PM 67.5 °F - 41.9 °F 39% 29.51 in 10.0 mi SE 10.4 mph 18.4 mph N/A   Overcast
8:15 PM 67.3 °F - 41.5 °F 39% 29.51 in 10.0 mi SSE 12.7 mph 23.0 mph N/A   Overcast
8:19 PM 67.3 °F - 41.5 °F 39% 29.51 in 10.0 mi SSE 12.7 mph 23.0 mph N/A   Overcast
8:36 PM 67.1 °F - 41.5 °F 39% 29.52 in 10.0 mi SSE 11.5 mph 18.4 mph N/A   Overcast
8:55 PM 66.6 °F - 41.9 °F 41% 29.52 in 10.0 mi SSE 12.7 mph 19.6 mph N/A   Overcast
8:56 PM 66.4 °F - 41.9 °F 41% 29.52 in 10.0 mi SSE 12.7 mph 19.6 mph N/A   Overcast
9:15 PM 66.4 °F - 41.9 °F 41% 29.53 in 10.0 mi SSE 12.7 mph 19.6 mph N/A   Overcast
9:20 PM 66.2 °F - 41.9 °F 41% 29.53 in 10.0 mi SSE 11.5 mph 20.7 mph N/A   Overcast
9:37 PM 65.3 °F - 41.9 °F 42% 29.53 in 10.0 mi SSE 13.8 mph 20.7 mph N/A   Mostly Cloudy
9:55 PM 64.4 °F - 42.3 °F 44% 29.53 in 10.0 mi SSE 11.5 mph 18.4 mph N/A   Clear
9:56 PM 64.4 °F - 42.3 °F 44% 29.53 in 10.0 mi SSE 11.5 mph 18.4 mph N/A   Clear
10:19 PM 63.3 °F - 42.8 °F 47% 29.54 in 10.0 mi South 8.1 mph 20.7 mph N/A   Clear
10:36 PM 62.8 °F - 42.8 °F 48% 29.54 in 10.0 mi South 9.2 mph 18.4 mph N/A   Clear
10:55 PM 61.7 °F - 43.2 °F 51% 29.54 in 10.0 mi South 8.1 mph - N/A   Clear
10:56 PM 61.7 °F - 43.2 °F 51% 29.54 in 10.0 mi South 8.1 mph - N/A   Clear
11:19 PM 60.8 °F - 43.7 °F 53% 29.54 in 10.0 mi South 11.5 mph 17.3 mph N/A   Clear
11:35 PM 60.1 °F - 43.7 °F 55% 29.55 in 10.0 mi South 6.9 mph - N/A   Clear
11:55 PM 59.2 °F - 44.1 °F 57% 29.55 in 10.0 mi South 6.9 mph - N/A   Clear
11:59 PM 59.0 °F - 44.1 °F 58% 29.55 in 10.0 mi South 9.2 mph - N/A   Clear